Regional Weather Roundup
Issued by NWS

Home | Current Version | Previous Version | Graphics & Text | Print | Product List | Glossary On
Versions: 1 2 3 4 5 6 7 8 9 10 11 12 13 14 15 16 17 18 19 20 21 22 23 24 25 26 27 28 29 30 31 32 33 34 35 36 37 38 39 40 41 42 43 44 45 46 47 48 49 50
000
ASUS43 KMPX 301001
RWRMN
WEATHER ROUNDUP FOR MINNESOTA
NATIONAL WEATHER SERVICE TWIN CITIES/CHANHASSEN MN
500 AM CDT SUN AUG 30 2015


NOTE: "FAIR" INDICATES FEW OR NO CLOUDS BELOW 12,000 FEET WITH NO
SIGNIFICANT WEATHER AND/OR OBSTRUCTIONS TO VISIBILITY. N/A MEANS
CURRENT SKY AND/OR WEATHER CONDITIONS ARE NOT AVAILABLE.

MNZ060>063-068>070-301100-
   Twin Cities Metro

CITY           SKY/WX    TMP DP  RH WIND       PRES   REMARKS
TWIN CITIES    MOCLDY    63  61  93 S5        30.00S
ST PAUL        CLOUDY    63  63 100 SE5       30.00S FOG
CRYSTAL        CLOUDY    63  61  93 S6        29.98S
BLAINE         CLOUDY    64  64 100 S8        29.99S
LAKEVILLE      CLOUDY    61  61 100 CALM      30.01R
EDEN PRAIRIE   PTCLDY    62  59  90 S7        29.99S
SOUTH ST PAUL  CLOUDY    63  62  96 S3        30.00S FOG
LAKE ELMO      CLOUDY    63  63 100 S6        30.02S FOG
$$
MNZ001>005-007-008-013>017-022>024-027-028-301100-
   Northwest Minnesota

CITY           SKY/WX    TMP DP  RH WIND       PRES   REMARKS
BEMIDJI        CLEAR     61  60  97 S5        29.88S
HALLOCK        PTCLDY    64  64 100 S8        29.77S
ROSEAU         PTCLDY    66  61  82 SW5       29.80S
WARROAD        CLEAR     66  63  88 SW8       29.80S
THIEF RVR FALL CLEAR    N/A N/A N/A S8        29.82S
CROOKSTON      PTCLDY    66  64  94 S12       29.81F
FOSSTON        CLEAR     61  61 100 S8        29.86S
DETROIT LAKES  CLEAR     63  63 100 S8        29.90R
MOORHEAD       PTCLDY    64  63  94 S10       29.85S
PARK RAPIDS    CLOUDY    64  62  93 S9        29.90S
MAHNOMEN       FAIR      64  62  93 S7        29.86R
$$
MNZ006-009>011-018-025>026-301100-
   North Central Minnesota

CITY           SKY/WX    TMP DP  RH WIND       PRES   REMARKS
BAUDETTE       PTCLDY    64  61  90 S7        29.81F
FLAG ISLAND    PTCLDY    66  64  94 S5        29.79S
INTL FALLS     CLEAR     63  61  93 VRB7      29.84F
WASKISH        CLEAR     64  63  94 S7        29.85S
BIG FORK       CLOUDY    64  63  94 S6        29.90R
LONGVILLE      MOCLDY    63  61  94 S5        29.91S
GRAND RAPIDS     N/A     61  57  88 S8        29.92S
CRANE LAKE     CLEAR     59  59 100 S5        29.90F
COOK           MOCLDY    61  61 100 CALM      29.91S
WALKER         CLOUDY    63  62  96 S8        29.89F
$$
MNZ012-019>021-037-301100-
   Northeast Minnesota

CITY           SKY/WX    TMP DP  RH WIND       PRES   REMARKS
DULUTH         CLOUDY    63  61  93 SW14G22   29.95S FOG
ELY            MOCLDY    61  59  94 SW7       29.92S
HIBBING        CLOUDY    61  60  97 S6        29.92F
EVELETH        MOCLDY    59  59 100 CALM      29.94F FOG
DULUTH HARBOR  CLOUDY    63  61  94 SW3       29.95F
TWO HARBORS    HAZE      63  57  82 CALM      29.93S VSB 1/2
SILVER BAY     CLOUDY    57  57 100 CALM      29.93S FOG
GRAND MARAIS     N/A     54  53  97 CALM      29.93S
G MARAIS ARPRT CLEAR     59  55  88 S6        29.96S FOG
$$
MNZ029>031-032-039>041-046>048-054>057-064-301100-
   West Central Minnesota

CITY           SKY/WX    TMP DP  RH WIND       PRES   REMARKS
FERGUS FALLS   PTCLDY    63  63 100 SE9       29.88S
WHEATON        CLEAR     57  57 100 SE10      29.89S
MORRIS         CLEAR     61  61 100 SE9       29.91R FOG
ALEXANDRIA     CLEAR     62  61  96 S8        29.94R
ELBOW LAKE     FAIR      61  61  99 S12       29.89S
WADENA         PTCLDY    61  59  94 S5        29.91S
GLENWOOD       CLEAR     61  61 100 S10       29.95S
APPLETON       CLEAR     63  61  94 SE8       29.91F
BENSON         PTCLDY    61  57  88 S7        29.93S
ORTONVILLE     CLEAR     61  57  88 SE9       29.90S
MADISON        CLEAR     61  59  94 SE6       29.92S FOG
WILLMAR        CLOUDY    63  63 100 S5        29.98R FOG
$$
MNZ033>034-036-042>043-049>051-058-059-301100-
   Central Minnesota

CITY           SKY/WX    TMP DP  RH WIND       PRES   REMARKS
ST CLOUD       MOCLDY    58  58 100 SE7       29.96F FOG
SAUK CENTRE    CLOUDY    60  60  99 S6        29.94S
PAYNESVILLE    CLOUDY    61  60  98 SE7       29.96F FOG
AITKIN         MOCLDY    64  59  82 S7        29.92F
PINE RIVER     CLOUDY    63  63 100 S6        29.95S
BRAINERD       CLOUDY    62  61  96 S9        29.93F
STAPLES        CLOUDY    63  61  94 S9        29.92S
LONG PRAIRIE   FAIR      59  59 100 S6        29.94S
LITTLE FALLS   CLOUDY    61  59  94 S7        29.94F FOG
LITCHFIELD     CLOUDY    61  61 100 S3        29.98S
BUFFALO        CLOUDY    61  58  92 S6        29.99S
MAPLE LAKE     MOCLDY    61  60  98 S3        29.98F
$$
MNZ037-044-045-052-053-301100-
   East Central Minnesota

CITY           SKY/WX    TMP DP  RH WIND       PRES   REMARKS
PRINCETON      CLEAR     63  61  94 S6        29.97F
MORA           CLOUDY    59  59 100 S7        29.99S FOG
CAMBRIDGE      CLOUDY    64  55  72 S5        29.96F HAZE
RUSH CITY      CLOUDY    63  61  96 S7        29.98F
MOOSE LAKE     CLOUDY    61  61 100 SW7       29.94F FOG
HINCKLEY       CLOUDY    63  63 100 S7        29.98S FOG
CLOQUET        CLOUDY    63  61  94 S12       29.95F
MCGREGOR       CLOUDY    63  63 100 S7        29.94F
$$
MNZ071>073-080-081-089-090-097-098-301100-
   Southwest Minnesota

CITY           SKY/WX    TMP DP  RH WIND       PRES   REMARKS
MONTEVIDEO     CLEAR     61  61 100 S8        29.95S FOG
GRANITE FALLS  CLEAR     60  60  99 SE9       29.97S FOG
CANBY          PTCLDY    65  60  86 S10       29.93S
MARSHALL       PTCLDY    63  55  77 S8        29.96F
REDWOOD FALLS  CLOUDY    63  61  93 S12       29.97S
OLIVIA         CLOUDY    59  55  88 S8        29.96S
PIPESTONE      CLOUDY    63  61  94 SW13      29.99S FOG
WINDOM         CLOUDY    61  59  94 S13       30.01S
WORTHINGTON    CLOUDY    61  57  88 SW12G17   30.01S
JACKSON        CLOUDY    61  61 100 SW7       30.03S FOG
TRACY          MOCLDY    63  61  94 S8        29.98S
SLAYTON        CLOUDY    61  61  99 CALM      30.01R
$$
MNZ065>067-074>077-082>085-091>093-301100-
   South Central Minnesota

CITY           SKY/WX    TMP DP  RH WIND       PRES   REMARKS
MANKATO        MOCLDY    59  55  88 SW7       30.01S
NEW ULM        CLOUDY    61  61 100 SW8       30.00R
ST JAMES       CLOUDY    63  61  94 S8        30.02S
FAIRMONT       CLOUDY    63  55  77 S10       30.02S
GLENCOE        CLOUDY    62  62  99 S8        29.98S FOG
FARIBAULT      CLOUDY    61  61 100 S7        30.02S FOG
OWATONNA       CLOUDY    61  57  88 S5        30.02S FOG
WASECA         CLEAR     55  55 100 S3        30.04R FOG
ALBERT LEA     CLOUDY    61  59  94 CALM      30.04R FOG
$$
MNZ078>079-086>088-094>096-301100-
   Southeast Minnesota

CITY           SKY/WX    TMP DP  RH WIND       PRES   REMARKS
ROCHESTER      CLEAR     57  56  96 S6        30.04R FOG
RED WING       CLEAR     63  61  94 CALM      30.01R
STANTON        FOG       62  60  93 CALM      30.00S VSB 3/4
DODGE CENTER   FOG       61  59  94 S9        30.03S VSB 1
WINONA         FOG       59  59 100 CALM      30.04R VSB 1/4
AUSTIN         CLOUDY    61  59  94 S3        30.04R
PRESTON        FOG       57  56  96 CALM      30.05S VSB 1/4
$$
ABBREVIATIONS USED IN REMARKS
   TC - TEMPERATURES IN CELSIUS
  WCI - WIND CHILL INDEX
   HX - HEAT INDEX
  VSB - VISIBILITY
$$



USA.gov is the U.S. government's official web portal to all federal, state and local government web resources and services.